Language selection

Weather shortcuts

Whitefish Bay: Past 24 Hour Conditions

 

Sault Ste. Marie Airport

03:00 AM EDT 24 June 2024
Disclaimer

This table is a summary of hourly weather conditions for the past 24 hours.
Please note that these observations might not always be representative of weather conditions over their associated marine area.

Date / Time
(EDT)
Wind(knots) Conditions Visibility(km) Pressure(kPa) Air tempC) Relative humidity(%) Dew pointC) Humidex
24 June 2024
3:00 WNW 9 Mainly Clear 24 101.1 13 97 13 *
2:00 NW 5 Mostly Cloudy 24 101.1 14 97 14 *
1:00 W 5 Partly Cloudy 24 101.1 13 98 13 *
0:00 WNW 9 Partly Cloudy 24 101.0 13 97 13 *
23 June 2024
23:00 WNW 4 Mostly Cloudy 24 101.0 13 93 12 *
22:00 WNW 5 Mostly Cloudy 24 101.0 13 91 12 *
21:00 WNW 8 Mostly Cloudy 24 101.0 13 90 11 *
20:00 WNW 11 Light Rainshower 24 100.9 13 86 11 *
19:00 WNW 15 Mostly Cloudy 32 100.8 15 75 11 *
18:00 WNW 14 Mostly Cloudy 24 100.7 17 70 11 *
17:00 WNW 14 Mostly Cloudy 32 100.7 19 69 13 *
16:00 WNW 14 Partly Cloudy 32 100.6 20 67 13 *
15:00 WNW 12 Partly Cloudy 32 100.6 19 72 14 *
14:00 WNW 17 Mostly Cloudy 32 100.5 18 76 14 *
13:00 W 12 Partly Cloudy 32 100.5 19 76 15 *
12:00 WNW 11 gusts 18 Partly Cloudy 32 100.4 19 80 15 *
11:00 WNW 17 gusts 23 Partly Cloudy 32 100.3 17 82 14 *
10:00 NNW 12 gusts 18 Partly Cloudy 32 100.2 21 78 17 25
9:00 NNW 11 gusts 17 Mostly Cloudy 32 100.2 18 90 17 *
8:00 NNW 8 Mostly Cloudy 24 100.1 18 93 17 *
7:00 NNW 7 Mostly Cloudy 19 100.0 17 96 17 *
6:00 NE 15 gusts 24 Light Rain 8 99.9 18 95 17 *
5:00 N 11 gusts 17 Heavy Rain 3 100.0 17 100 17 *
4:00 NNW 13 gusts 18 Rain 3 100.0 17 100 17 *
3:00 NNE 8 Light Rain 5 100.1 17 100 17 *

Zoom-in to make a selection

Map of Great Lakes - Lake Superior marine weather areas Mid Superior - 45001 East Superior - 45004 West Superior - 45006 Slate Island - 45136 Lake Of the Woods - 45148 Kenora Airport Royal Island Armstrong Airport Caribou Island Marathon Airport Pukaskwa National Park Thunder Bay Airport Welcome Island Little Flatland Island Sault Ste. Marie Airport Wawa Airport
Legend:
buoy Buoy
land station Land Station

Great Lakes - Lake Superior Area

Another Region

Features

New Predicting and Alerting Coastal Flooding Program

Find out about coastal flooding coverage, forecasts and warnings in your region

Date modified: